Weather History for St. Joseph, MO

Change the Weather History Date:

Wednesday, April 10, 2013

  Actual Average Record
Temperature  
Mean Temperature 42 °F 52 °F  
Max Temperature 46 °F 64 °F 93 °F (1930)
Min Temperature 37 °F 41 °F 24 °F (1989)
Degree Days  
Heating Degree Days 23 13  
Month to date heating degree days 149 143  
Since 1 July heating degree days 5102 5136  
Cooling Degree Days 0 1  
Month to date cooling degree days 0 3  
Year to date cooling degree days 0 5  
Moisture  
Dew Point 39 °F    
Average Humidity 87    
Maximum Humidity 92    
Minimum Humidity 82    
Precipitation  
Precipitation 0.80 in 0.12 in 2.69 in (1997)
Month to date precipitation 1.84 0.95  
Year to date precipitation 4.93 4.69  
Sea Level Pressure  
Sea Level Pressure 29.84 in    
Wind  
Wind Speed 12 mph (NW)    
Max Wind Speed 25 mph    
Max Gust Speed 29 mph    
Visibility 6 miles    
Events Rain , Thunderstorm    
T = Trace of Precipitation, MM = Missing Value Source: NWS Daily Summary

Daily Weather History Graph

Daily Weather History Graph

Search for Another Location

Airport:

Trip Planner

Search our weather history database for the weather conditions in past years. The results will help you decide how hot, cold, wet, or windy it might be!

Date:

Astronomy

Apr. 10, 2013 Rise Set
Actual Time 6:49 AM CDT 7:53 PM CDT
Civil Twilight 6:21 AM CDT 8:20 PM CDT
Nautical Twilight 5:48 AM CDT 8:53 PM CDT
Astronomical Twilight 5:14 AM CDT 9:28 PM CDT
Moon 6:45 AM CDT (4/10) 8:29 PM CDT (4/10)
Length of Visible Light 13h 59m
Length of Day
13h 03m
New Moon, 0% of the Moon is Illuminated
Apr 10
New Moon
Apr 18
First Quarter
Apr 25
Full
May 2
Last Quarter
May 9
New

Hourly Weather History & Observations

Time (CDT) Temp. Windchill Dew Point Humidity Pressure Visibility Wind Dir Wind Speed Gust Speed Precip Events Conditions
12:40 AM 44.6 °F 34.6 °F 42.8 °F 93% 29.88 in 5.0 mi NW 31.1 mph 39.1 mph 0.06 in Rain , Thunderstorm Light Rain
12:53 AM 41.0 °F 31.1 °F 37.9 °F 89% 29.86 in 8.0 mi North 23.0 mph 43.7 mph 0.07 in Rain , Thunderstorm Light Rain
1:02 AM 42.8 °F 34.3 °F 37.4 °F 81% 29.84 in 3.0 mi North 19.6 mph 28.8 mph 0.06 in Rain , Thunderstorm Rain
1:11 AM 42.8 °F 35.8 °F 39.2 °F 87% 29.90 in 3.0 mi North 13.8 mph 28.8 mph 0.11 in Rain , Thunderstorm Heavy Thunderstorms and Rain
1:55 AM 42.8 °F 34.5 °F 39.2 °F 87% 29.84 in - North 18.4 mph - 0.25 in Rain , Thunderstorm Thunderstorms and Rain
2:09 AM 42.8 °F 34.8 °F 39.2 °F 87% 29.82 in 8.0 mi North 17.3 mph - 0.27 in Rain Light Rain
2:53 AM 45.0 °F 38.9 °F 42.1 °F 90% 29.74 in 10.0 mi ENE 12.7 mph - 0.32 in Rain Light Rain
3:53 AM 45.0 °F - 42.1 °F 90% 29.77 in 10.0 mi Calm Calm - 0.00 in   Scattered Clouds
4:21 AM 44.6 °F 38.1 °F 42.8 °F 93% 29.83 in 10.0 mi West 13.8 mph - 0.00 in Rain Light Rain
4:42 AM 44.6 °F 38.4 °F 41.0 °F 87% 29.85 in 7.0 mi WNW 12.7 mph - 0.02 in Rain Rain
4:53 AM 44.1 °F 36.5 °F 41.0 °F 89% 29.80 in 5.0 mi NNW 17.3 mph 23.0 mph 0.06 in Rain Rain
5:00 AM 44.6 °F 38.1 °F 41.0 °F 87% 29.79 in 4.0 mi NNW 13.8 mph - 0.03 in Rain Rain
5:20 AM 42.8 °F 36.6 °F 39.2 °F 87% 29.83 in 5.0 mi NNW 11.5 mph 16.1 mph 0.08 in Rain Rain
5:53 AM 41.0 °F 33.5 °F 37.9 °F 89% 29.86 in 10.0 mi WNW 13.8 mph - 0.10 in Rain Light Rain
6:53 AM 39.9 °F 33.9 °F 37.0 °F 89% 29.92 in 10.0 mi WNW 9.2 mph - 0.00 in   Overcast
7:53 AM 39.9 °F 33.9 °F 37.0 °F 89% 29.88 in 6.0 mi NNW 9.2 mph - N/A   Overcast
8:53 AM 39.9 °F 34.5 °F 37.9 °F 93% 29.91 in 6.0 mi WNW 8.1 mph - N/A   Overcast
9:53 AM 41.0 °F 37.1 °F 37.9 °F 89% 29.92 in 7.0 mi West 5.8 mph - 0.00 in Rain Light Rain
10:44 AM 41.0 °F 34.7 °F 37.4 °F 87% 29.92 in 2.5 mi West 10.4 mph - 0.07 in Rain Rain
10:53 AM 41.0 °F 33.9 °F 37.9 °F 89% 29.95 in 2.5 mi West 12.7 mph - 0.09 in Rain Rain
11:10 AM 41.0 °F 35.8 °F 37.4 °F 87% 29.93 in 2.0 mi West 8.1 mph - 0.04 in Rain Rain
11:26 AM 41.0 °F 35.2 °F 37.4 °F 87% 29.92 in 4.0 mi NW 9.2 mph - 0.06 in Rain Rain
12:03 PM 42.8 °F 36.2 °F 39.2 °F 87% 29.89 in 9.0 mi NW 12.7 mph - 0.00 in Rain Light Rain
12:10 PM 42.8 °F 36.6 °F 39.2 °F 87% 29.90 in 10.0 mi NW 11.5 mph - 0.00 in Rain Light Rain
1:53 PM 44.1 °F 36.5 °F 39.9 °F 85% 29.88 in 10.0 mi NW 17.3 mph - 0.00 in   Overcast
2:32 PM 42.8 °F 35.8 °F 39.2 °F 87% 29.89 in 4.0 mi NW 13.8 mph - 0.00 in Rain Light Rain
2:53 PM 42.1 °F 34.5 °F 39.0 °F 89% 29.89 in 4.0 mi NW 15.0 mph - 0.00 in Rain Light Rain
2:58 PM 42.8 °F 35.8 °F 39.2 °F 87% 29.88 in 4.0 mi NW 13.8 mph - 0.00 in Rain Light Rain
3:15 PM 42.8 °F 35.8 °F 39.2 °F 87% 29.84 in 5.0 mi NNW 13.8 mph - 0.01 in Rain Light Rain
3:53 PM 43.0 °F 36.0 °F 39.9 °F 89% 29.84 in 10.0 mi NNW 13.8 mph - 0.01 in   Overcast
4:53 PM 44.1 °F 35.7 °F 39.9 °F 85% 29.77 in 6.0 mi North 20.7 mph - 0.00 in   Overcast
5:38 PM 42.8 °F 36.6 °F 39.2 °F 87% 29.77 in 5.0 mi NNW 11.5 mph - N/A   Overcast
5:51 PM 42.8 °F 37.5 °F 39.2 °F 87% 29.76 in 10.0 mi North 9.2 mph - N/A   Overcast
5:53 PM 43.0 °F 37.2 °F 39.9 °F 89% 29.78 in 10.0 mi NNW 10.4 mph - N/A   Overcast
6:00 PM 42.8 °F 36.6 °F 39.2 °F 87% 29.78 in 10.0 mi NNW 11.5 mph - N/A   Overcast
6:46 PM 42.8 °F 37.5 °F 39.2 °F 87% 29.78 in 2.5 mi NNW 9.2 mph - N/A   Overcast
6:53 PM 43.0 °F 37.2 °F 39.9 °F 89% 29.79 in 2.5 mi NNW 10.4 mph - N/A   Overcast
7:17 PM 42.8 °F 37.5 °F 39.2 °F 87% 29.78 in 4.0 mi NW 9.2 mph - N/A   Overcast
7:29 PM 42.8 °F 36.2 °F 39.2 °F 87% 29.78 in 2.5 mi NW 12.7 mph - N/A   Overcast
7:36 PM 42.8 °F 36.6 °F 39.2 °F 87% 29.79 in 1.8 mi WNW 11.5 mph - N/A   Overcast
7:53 PM 41.0 °F 33.1 °F 37.9 °F 89% 29.81 in 1.8 mi WNW 15.0 mph - 0.00 in Rain Light Rain
8:03 PM 39.2 °F 32.0 °F 37.4 °F 93% 29.80 in 2.0 mi WNW 11.5 mph - 0.00 in Rain Light Rain
8:16 PM 39.2 °F 32.5 °F 37.4 °F 93% 29.80 in 3.0 mi NW 10.4 mph - 0.01 in Rain Light Rain
8:28 PM 39.2 °F 32.0 °F 37.4 °F 93% 29.80 in 4.0 mi WNW 11.5 mph - 0.01 in Rain Light Rain
8:53 PM 39.9 °F 33.4 °F 37.9 °F 93% 29.82 in 5.0 mi NW 10.4 mph - 0.03 in Rain Light Rain
9:53 PM 39.9 °F 35.1 °F 37.9 °F 93% 29.82 in 10.0 mi NW 6.9 mph - 0.00 in Rain Light Rain
10:15 PM 39.2 °F 33.0 °F 37.4 °F 93% 29.79 in 10.0 mi WNW 9.2 mph - 0.00 in   Overcast
10:53 PM 39.9 °F 33.4 °F 37.0 °F 89% 29.81 in 10.0 mi WNW 10.4 mph - 0.00 in   Overcast
11:09 PM 39.2 °F 31.2 °F 37.4 °F 93% 29.79 in 7.0 mi West 13.8 mph - N/A   Overcast
11:53 PM 37.9 °F 30.0 °F 36.0 °F 93% 29.81 in 5.0 mi West 12.7 mph - N/A   Overcast